DW7680 Weather Reports


Display with metric or nautical units.
time (UTC)temp
F
wind
direction
speed
MPH
gust
MPH
rain 1hr
in
rain 24hr
in
rain mn
in
humidity
%
barometer
mb
20260904121602 57 286 3.0 6.0 0.00 0.54 0.00 80 1011.0
20260904120104 59 273 4.0 7.0 0.00 0.54 0.00 76 1011.0
20260904114559 60 263 4.0 7.0 0.00 0.54 0.00 76 1010.9
20260904113102 60 276 3.0 6.0 0.00 0.54 0.00 75 1010.8
20260904111602 61 269 4.0 6.0 0.00 0.54 0.00 74 1010.7
20260904110108 60 267 4.0 7.0 0.00 0.54 0.00 75 1010.8
20260904104602 61 315 3.0 6.0 0.00 0.54 0.00 74 1010.9
20260904103058 62 279 2.0 6.0 0.00 0.54 0.00 73 1010.8
20260904101609 62 298 0.0 2.0 0.00 0.54 0.00 73 1011.1
20260904094559 64 284 3.0 10.0 0.00 0.54 0.00 71 1010.9
20260904093115 64 323 5.0 14.0 0.00 0.54 0.00 70 1010.9
20260904091558 64 296 4.0 9.0 0.00 0.54 0.00 69 1011.1
20260904090059 65 279 11.0 20.0 0.00 0.54 0.00 68 1011.1
20260904084601 65 259 8.0 15.0 0.00 0.54 0.00 68 1011.0
20260904083058 64 284 2.0 7.0 0.00 0.54 0.00 69 1011.0
20260904081559 63 279 2.0 9.0 0.00 0.54 0.00 69 1011.3
20260904074558 63 277 0.0 3.0 0.00 0.54 0.00 69 1011.7
20260904073058 64 255 1.0 6.0 0.00 0.54 0.00 69 1011.9
20260904071558 64 260 4.0 13.0 0.00 0.54 0.00 67 1011.9
20260904070058 64 254 4.0 10.0 0.00 0.54 0.00 68 1012.0
20260904070003 64 259 4.0 10.0 0.00 0.54 0.00 68 1012.0
20260904064600 65 250 1.0 10.0 0.00 0.54 0.00 68 1012.2
20260904063100 65 245 3.0 16.0 0.00 0.54 0.00 66 1012.4
20260904061600 62 239 6.0 11.0 0.00 0.54 0.00 71 1012.0
20260904060101 60 258 2.0 7.0 0.00 0.54 0.00 76 1012.0
20260904060005 60 223 1.0 7.0 0.00 0.54 0.00 76 1011.9
20260904054502 60 281 4.0 9.0 0.00 0.54 0.54 76 1011.7
20260904053002 60 258 4.0 7.0 0.00 0.54 0.54 78 1011.7
20260904051505 60 271 4.0 9.0 0.00 0.54 0.54 79 1011.7
20260904050101 60 261 3.0 6.0 0.00 0.54 0.54 78 1011.7
20260904050005 60 259 3.0 8.0 0.00 0.54 0.54 78 1011.7
20260904044610 60 281 3.0 7.0 0.00 0.54 0.54 79 1011.8
20260904043100 60 327 2.0 4.0 0.00 0.54 0.54 78 1011.9
20260904041601 60 309 3.0 8.0 0.00 0.54 0.54 78 1011.9
20260904040100 59 286 4.0 6.0 0.00 0.54 0.54 82 1011.9
20260904040002 59 268 3.0 6.0 0.00 0.54 0.54 82 1011.9
20260904034501 59 282 2.0 5.0 0.00 0.54 0.54 83 1012.0
20260904033002 59 286 2.0 7.0 0.00 0.54 0.54 83 1011.8
20260904031501 59 301 2.0 10.0 0.00 0.54 0.54 82 1011.8
20260904030001 58 267 4.0 8.0 0.00 0.54 0.54 84 1011.5
20260904024601 58 253 4.0 8.0 0.00 0.54 0.54 86 1011.3
20260904023103 58 272 5.0 10.0 0.00 0.54 0.54 86 1011.0
20260904021601 58 272 4.0 8.0 0.00 0.54 0.54 87 1010.6
20260904020059 58 269 4.0 7.0 0.00 0.54 0.54 87 1010.4
20260904014602 58 290 4.0 6.0 0.00 0.54 0.54 87 1010.3
20260904013100 59 265 3.0 6.0 0.00 0.54 0.54 88 1010.2
20260904011612 60 262 3.0 6.0 0.00 0.54 0.54 88 1010.2
20260904010110 61 279 1.0 4.0 0.00 0.54 0.54 88 1010.1
20260904004559 61 295 2.0 4.0 0.00 0.54 0.54 87 1010.1
20260904003100 62 291 1.0 3.0 0.00 0.54 0.54 86 1010.2
20260904001600 62 298 2.0 4.0 0.01 0.54 0.54 86 1010.1
20260903234559 63 53 1.0 3.0 0.01 0.54 0.54 84 1010.3
20260903233059 64 53 0.0 5.0 0.01 0.54 0.54 82 1010.0
20260903231600 66 360 2.0 4.0 0.00 0.53 0.53 74 1009.7
20260903230059 66 360 0.0 4.0 0.00 0.53 0.53 79 1009.4
20260903230002 66 360 1.0 4.0 0.00 0.53 0.53 80 1009.4
20260903224559 65 360 2.0 4.0 0.11 0.53 0.53 78 1009.6
20260903223101 63 221 3.0 6.0 0.19 0.53 0.53 81 1009.6
20260903221602 61 258 4.0 8.0 0.19 0.53 0.53 85 1009.4
20260903220119 60 269 3.0 9.0 0.19 0.53 0.53 87 1009.5
20260903220001 60 324 3.0 11.0 0.19 0.53 0.53 86 1009.5
20260903214600 61 273 2.0 9.0 0.09 0.42 0.42 85 1009.4
20260903213104 62 246 4.0 7.0 0.01 0.34 0.34 85 1009.6
20260903211603 61 279 3.0 7.0 0.01 0.34 0.34 86 1009.8
20260903210108 61 306 3.0 8.0 0.16 0.34 0.34 85 1009.7
20260903210002 61 295 2.0 4.0 0.16 0.34 0.34 84 1009.7
20260903204559 61 306 2.0 5.0 0.33 0.33 0.33 79 1009.8
20260903203131 60 263 2.0 4.0 0.33 0.33 0.33 80 1010.0
20260903201559 61 340 7.0 15.0 0.33 0.33 0.33 75 1009.7
20260903194600 67 117 7.0 20.0 0.00 0.00 0.00 65 1010.2
20260903193101 75 115 2.0 19.0 0.00 0.00 0.00 48 1009.4
20260903191603 79 169 0.0 6.0 0.00 0.00 0.00 38 1008.9
20260903190059 79 243 1.0 9.0 0.00 0.00 0.00 39 1009.2
20260903190002 80 336 3.0 9.0 0.00 0.00 0.00 39 1009.2
20260903184559 80 268 3.0 10.0 0.00 0.00 0.00 38 1009.5
20260903183100 80 215 5.0 11.0 0.00 0.00 0.00 39 1009.9
20260903181558 78 261 3.0 10.0 0.00 0.00 0.00 40 1010.2
20260903180104 80 263 7.0 13.0 0.00 0.00 0.00 38 1010.5
20260903174600 81 244 5.0 9.0 0.00 0.00 0.00 36 1010.6
20260903173059 79 241 6.0 12.0 0.00 0.00 0.00 38 1010.7
20260903171611 78 261 4.0 7.0 0.00 0.00 0.00 40 1010.8
20260903170001 78 296 2.0 9.0 0.00 0.00 0.00 38 1010.9
20260903164634 79 279 5.0 8.0 0.00 0.00 0.00 39 1010.8
20260903163102 78 207 5.0 15.0 0.00 0.00 0.00 41 1010.8
20260903161559 77 126 5.0 13.0 0.00 0.00 0.00 41 1010.7
20260903160059 76 294 3.0 15.0 0.00 0.00 0.00 43 1010.6
20260903160003 76 269 4.0 15.0 0.00 0.00 0.00 43 1010.6
20260903154601 76 272 6.0 15.0 0.00 0.00 0.00 44 1010.6
20260903153100 76 251 4.0 10.0 0.00 0.00 0.00 44 1010.7
20260903151559 75 245 3.0 9.0 0.00 0.00 0.00 46 1010.7
20260903150100 74 248 4.0 7.0 0.00 0.00 0.00 47 1010.8
20260903144608 72 206 3.0 10.0 0.00 0.00 0.00 49 1010.9
20260903143059 69 263 3.0 8.0 0.00 0.00 0.00 55 1011.0
20260903141601 65 233 3.0 5.0 0.00 0.00 0.00 61 1011.1
20260903134601 60 276 3.0 6.0 0.00 0.00 0.00 67 1011.1
20260903133102 59 271 3.0 9.0 0.00 0.00 0.00 69 1010.9
20260903131558 58 263 4.0 7.0 0.00 0.00 0.00 70 1011.0
20260903130059 57 266 5.0 9.0 0.00 0.00 0.00 72 1010.8
20260903124608 57 265 4.0 9.0 0.00 0.00 0.00 72 1010.8
20260903123058 56 266 5.0 8.0 0.00 0.00 0.00 73 1010.8